Station AGCM4 - 9014070 - Algonac, MI Image indicating link to RSS feed of recent meteorological observations for station AGCM4


Conditions at AGCM4 as of
(6:00 am EDT)
1000 GMT on 06/06/2023:
     

Click on the graph icon in the table below to see a time series plot of the last five days of that observation.

5-day plot - Atmospheric Pressure Atmospheric Pressure (PRES):29.91 in
5-day plot - Pressure Tendency Pressure Tendency (PTDY):-0.01 in ( Falling )
5-day plot - Air Temperature Air Temperature (ATMP): 55.2 °F
5-day plot - Water Temperature Water Temperature (WTMP): 61.5 °F
NOS Water Level Observation Network Water Level
Previous observations
TIME
(EDT)
5-day plot - Wind Direction
WDIR
 
5-day plot - Wind Speed
WSPD
kts
5-day plot - Wind Gust
GST
kts
5-day plot - Wave Height
WVHT
ft
5-day plot - Dominant Wave Period
DPD
sec
5-day plot - Average Wave Period
APD
sec
5-day plot - Mean Wave Direction
MWD
 
5-day plot - Atmospheric Pressure
PRES
in
5-day plot - Pressure Tendency
PTDY
in
5-day plot - Air Temperature
ATMP
°F
5-day plot - Water Temperature
WTMP
°F
5-day plot - Dew Point
DEWP
°F
5-day plot - Salinity
SAL
psu
5-day plot - Visibility
VIS
nmi
5-day plot - Tide (above MLLW)
TIDE
ft
2023-06-06 05:54 am-------29.90- 55.0 61.3----
2023-06-06 05:48 am-------29.90- 54.5 61.3----
2023-06-06 05:42 am-------29.91- 54.5 61.3----
2023-06-06 05:36 am-------29.91- 55.2 61.3----
2023-06-06 05:30 am-------29.90- 55.8 61.3----
2023-06-06 05:24 am-------29.91- 54.9 61.3----
2023-06-06 05:18 am-------29.91- 54.7 61.3----
2023-06-06 05:12 am-------29.91- 54.3 61.2----
2023-06-06 05:06 am-------29.91- 54.7 61.3----
2023-06-06 05:00 am-------29.91-0.02 54.7 61.3----
2023-06-06 04:54 am-------29.91- 54.7 61.3----
2023-06-06 04:48 am-------29.91- 54.5 61.3----
2023-06-06 04:42 am-------29.91- 54.1 61.3----
2023-06-06 04:36 am-------29.91- 54.0 61.2----
2023-06-06 04:30 am-------29.91- 54.0 61.2----
2023-06-06 04:24 am-------29.91- 54.3 61.2----
2023-06-06 04:18 am-------29.91- 54.7 61.3----
2023-06-06 04:12 am-------29.91- 55.2 61.3----
2023-06-06 04:06 am-------29.91- 54.1 61.3----
2023-06-06 04:00 am-------29.91-0.03 54.0 61.3----
2023-06-06 03:54 am-------29.91- 53.8 61.3----
2023-06-06 03:48 am-------29.91- 54.0 61.3----
2023-06-06 03:42 am-------29.91- 54.3 61.3----
2023-06-06 03:36 am-------29.91- 54.7 61.3----
2023-06-06 03:30 am-------29.92- 54.9 61.3----
2023-06-06 03:24 am-------29.92- 55.0 61.3----
2023-06-06 03:18 am-------29.92- 55.2 61.3----
2023-06-06 03:12 am-------29.92- 54.5 61.3----
2023-06-06 03:06 am-------29.92- 54.1 61.2----
2023-06-06 03:00 am-------29.92-0.03 54.3 61.2----
2023-06-06 02:54 am-------29.92- 54.5 61.3----
2023-06-06 02:48 am-------29.92- 54.5 61.2----
2023-06-06 02:42 am-------29.92- 54.7 61.3----
2023-06-06 02:36 am-------29.92- 54.9 61.2----
2023-06-06 02:30 am-------29.92- 55.0 61.2----
2023-06-06 02:24 am-------29.92- 55.8 61.2----
2023-06-06 02:18 am-------29.92- 55.9 61.2----
2023-06-06 02:12 am-------29.93- 56.7 61.3----
2023-06-06 02:06 am-------29.93- 56.5 61.3----
2023-06-06 02:00 am-------29.93-0.03 56.5 61.3----
2023-06-06 01:54 am-------29.93- 55.9 61.3----
2023-06-06 01:48 am-------29.93- 55.8 61.3----
2023-06-06 01:42 am-------29.93- 56.3 61.3----
2023-06-06 01:36 am-------29.93- 56.5 61.3----
2023-06-06 01:30 am-------29.93- 56.5 61.3----
2023-06-06 01:24 am-------29.93- 57.0 61.3----
2023-06-06 01:18 am-------29.93- 57.2 61.3----
2023-06-06 01:12 am-------29.93- 57.0 61.3----
2023-06-06 01:06 am-------29.93- 57.4 61.3----
2023-06-06 01:00 am-------29.94-0.02 57.6 61.3----
2023-06-06 12:54 am-------29.94- 57.7 61.3----
2023-06-06 12:48 am-------29.94- 57.9 61.3----
2023-06-06 12:42 am-------29.95- 57.9 61.3----
2023-06-06 12:36 am-------29.95- 58.3 61.3----
2023-06-06 12:30 am-------29.95- 58.3 61.3----
2023-06-06 12:24 am-------29.95- 58.8 61.3----
2023-06-06 12:18 am-------29.95- 58.6 61.3----
2023-06-06 12:12 am-------29.95- 59.0 61.3----
2023-06-06 12:06 am-------29.96- 59.0 61.3----
2023-06-06 12:00 am-------29.95+0.00 59.2 61.3----
2023-06-05 11:54 pm-------29.96- 59.2 61.3----
2023-06-05 11:48 pm-------29.96- 59.2 61.3----
2023-06-05 11:42 pm-------29.96- 59.4 61.3----
2023-06-05 11:36 pm-------29.96- 59.5 61.3----
2023-06-05 11:30 pm-------29.96- 60.1 61.3----
2023-06-05 11:24 pm-------29.96- 60.1 61.3----
2023-06-05 11:18 pm-------29.96- 60.6 61.3----
2023-06-05 11:12 pm-------29.96- 60.8 61.3----
2023-06-05 11:06 pm-------29.95- 61.0 61.3----
2023-06-05 11:00 pm-------29.96- 61.3 61.3----
2023-06-05 10:54 pm-------29.96- 61.5 61.3----
2023-06-05 10:48 pm-------29.96- 61.9 61.3----
2023-06-05 10:42 pm-------29.96- 61.5 61.3----
2023-06-05 10:36 pm-------29.95- 62.1 61.3----
2023-06-05 10:30 pm-------29.96- 62.4 61.3----
2023-06-05 10:24 pm-------29.96- 62.6 61.3----
2023-06-05 10:18 pm-------29.96- 62.8 61.3----
2023-06-05 10:12 pm-------29.96- 63.5 61.3----
2023-06-05 10:06 pm-------29.96- 63.9 61.3----
2023-06-05 10:00 pm-------29.96+0.00 64.4 61.3----
2023-06-05 09:54 pm-------29.96- 64.6 61.3----
2023-06-05 09:48 pm-------29.96- 64.9 61.3----
2023-06-05 09:42 pm-------29.96- 64.9 61.3----
2023-06-05 09:36 pm-------29.96- 66.0 61.5----
2023-06-05 09:30 pm-------29.96- 66.7 61.5----
2023-06-05 09:24 pm-------29.95- 67.5 61.5----
2023-06-05 09:18 pm-------29.95- 67.3 61.5----
2023-06-05 09:12 pm-------29.95- 67.6 61.5----
2023-06-05 09:06 pm-------29.95- 68.4 61.5----
2023-06-05 09:00 pm-------29.95-0.01 67.8-----
2023-06-05 08:54 pm-------29.95- 67.5-----
2023-06-05 08:48 pm-------29.95- 66.2 61.5----
2023-06-05 08:42 pm-------29.95- 69.3 61.5----
2023-06-05 08:36 pm-------29.95- 70.0 61.5----
2023-06-05 08:30 pm-------29.95- 69.4 61.5----
2023-06-05 08:24 pm-------29.95- 70.0 61.5----
2023-06-05 08:18 pm-------29.95- 70.3 61.5----
2023-06-05 08:12 pm-------29.95- 70.7 61.5----
2023-06-05 08:06 pm-------29.95- 71.8 61.5----
2023-06-05 08:00 pm--------- 71.6 61.5----
2023-06-05 07:54 pm--------- 71.2 61.5----
2023-06-05 07:48 pm-------29.95- 73.2 61.5----
2023-06-05 07:42 pm-------29.95- 73.4 61.5----
2023-06-05 07:36 pm-------29.95- 73.0 61.5----
2023-06-05 07:30 pm-------29.95- 72.3 61.5----
2023-06-05 07:24 pm-------29.95- 72.1 61.5----
2023-06-05 07:18 pm-------29.95- 71.6 61.5----
2023-06-05 07:12 pm-------29.95- 72.0 61.7----
2023-06-05 07:06 pm-------29.95- 71.4 61.7----
2023-06-05 07:00 pm-------29.95-0.02 72.1 61.5----
2023-06-05 06:54 pm-------29.95- 73.2 61.5----
2023-06-05 06:48 pm-------29.95- 72.3 61.5----
2023-06-05 06:42 pm-------29.96- 72.0 61.5----
2023-06-05 06:36 pm-------29.95- 71.1 61.5----
2023-06-05 06:30 pm-------29.96- 72.1 61.5----
2023-06-05 06:24 pm-------29.96- 71.8 61.5----
2023-06-05 06:18 pm-------29.96- 73.6 61.5----
2023-06-05 06:12 pm-------29.96- 73.4 61.5----
2023-06-05 06:06 pm-------29.96- 73.2 61.5----
2023-06-05 06:00 pm-------29.96-0.04 74.1 61.5----
2023-06-05 05:54 pm-------29.96- 72.9 61.5----
2023-06-05 05:48 pm-------29.96- 72.7 61.5----
2023-06-05 05:42 pm-------29.96- 71.4 61.5----
2023-06-05 05:36 pm-------29.96- 70.9 61.5----
2023-06-05 05:30 pm-------29.96- 72.3 61.5----
2023-06-05 05:24 pm-------29.96- 70.2 61.5----
2023-06-05 05:18 pm-------29.97- 70.5 61.5----
2023-06-05 05:12 pm-------29.97- 70.9 61.5----
2023-06-05 05:06 pm-------29.97- 69.8 61.5----
2023-06-05 05:00 pm-------29.97-0.05 71.4 61.5----
2023-06-05 04:54 pm-------29.97- 70.2 61.5----
2023-06-05 04:48 pm-------29.97- 70.2 61.5----
2023-06-05 04:42 pm-------29.97- 71.2 61.5----
2023-06-05 04:36 pm-------29.97- 72.0 61.5----
2023-06-05 04:30 pm-------29.97- 70.7 61.5----
2023-06-05 04:24 pm-------29.97- 70.9 61.5----
2023-06-05 04:18 pm-------29.97- 69.1 61.5----
2023-06-05 04:12 pm-------29.98- 70.3 61.5----
2023-06-05 04:06 pm-------29.98- 71.1 61.5----
2023-06-05 04:00 pm-------29.98-0.05 71.2 61.5----
2023-06-05 03:54 pm-------29.98- 69.8 61.5----
2023-06-05 03:48 pm-------29.98- 70.2 61.5----
2023-06-05 03:42 pm-------29.98- 70.0 61.5----
2023-06-05 03:36 pm-------29.98- 70.9 61.5----
2023-06-05 03:30 pm-------29.98- 70.7 61.5----
2023-06-05 03:24 pm-------29.99- 69.6 61.5----
2023-06-05 03:18 pm-------29.99- 70.5 61.5----
2023-06-05 03:12 pm-------29.99- 70.9 61.5----
2023-06-05 03:06 pm-------29.99- 71.2 61.5----
2023-06-05 03:00 pm-------29.99-0.05 71.2 61.5----
2023-06-05 02:54 pm-------30.00- 71.1 61.5----
2023-06-05 02:48 pm-------30.00- 71.1 61.3----
2023-06-05 02:42 pm-------30.00- 71.1 61.3----
2023-06-05 02:36 pm-------30.00- 70.9 61.3----
2023-06-05 02:30 pm-------30.00- 70.2 61.3----
2023-06-05 02:24 pm-------30.00- 70.5 61.3----
2023-06-05 02:18 pm--------- 70.7 61.3----
2023-06-05 02:12 pm--------- 70.5 61.3----
2023-06-05 02:06 pm--------- 70.5 61.3----
2023-06-05 02:00 pm-------30.01-0.05 70.2 61.3----
2023-06-05 01:54 pm-------30.01- 69.8 61.3----
2023-06-05 01:48 pm-------30.02- 70.2 61.3----
2023-06-05 01:42 pm-------30.02- 69.6 61.2----
2023-06-05 01:36 pm-------30.03- 69.4 61.3----
2023-06-05 01:30 pm-------30.02- 69.8 61.2----
2023-06-05 01:24 pm-------30.03- 69.3 61.2----
2023-06-05 01:18 pm-------30.03- 69.1 61.2----
2023-06-05 01:12 pm-------30.03- 69.6 61.2----
2023-06-05 01:06 pm-------30.03- 68.7 61.2----
2023-06-05 01:00 pm-------30.03-0.04 68.5 61.2----
2023-06-05 12:54 pm-------30.03- 69.1 61.2----
2023-06-05 12:48 pm-------30.03- 68.7 61.2----
2023-06-05 12:42 pm-------30.03- 68.9 61.2----
2023-06-05 12:36 pm-------30.03- 69.8 61.2----
2023-06-05 12:30 pm-------30.04- 71.4 61.2----
2023-06-05 12:24 pm-------30.04- 70.2 61.2----
2023-06-05 12:18 pm-------30.04- 70.0 61.2----
2023-06-05 12:12 pm-------30.04- 69.3 61.2----
2023-06-05 12:06 pm-------30.04- 70.0 61.2----
2023-06-05 12:00 pm-------30.04-0.02 70.2 61.2----
2023-06-05 11:54 am-------30.05- 70.2 61.2----
2023-06-05 11:48 am-------30.05- 68.7 61.2----
2023-06-05 11:42 am-------30.05- 68.7 61.2----
2023-06-05 11:36 am-------30.05- 66.6 61.2----
2023-06-05 11:30 am-------30.05- 66.4 61.2----
2023-06-05 11:24 am-------30.06- 66.0 61.0----
2023-06-05 11:18 am-------30.06- 65.7 61.0----
2023-06-05 11:12 am-------30.06- 65.5 61.2----
2023-06-05 11:06 am-------30.06- 65.7 61.2----
2023-06-05 11:00 am-------30.06+0.00 64.9 61.0----
2023-06-05 10:54 am-------30.06- 64.6 61.0----
2023-06-05 10:48 am-------30.06- 64.0 61.0----
2023-06-05 10:42 am-------30.06- 63.7 61.0----
2023-06-05 10:36 am-------30.06- 63.1 61.0----
2023-06-05 10:30 am-------30.06- 63.3 61.0----
2023-06-05 10:24 am-------30.06- 62.6 61.0----
2023-06-05 10:18 am-------30.06- 62.1 61.0----
2023-06-05 10:12 am-------30.06- 62.8 61.0----
2023-06-05 10:06 am-------30.06- 63.0 61.0----
2023-06-05 10:00 am-------30.07+0.02 61.7 61.0----
2023-06-05 09:54 am-------30.07- 61.0 61.0----
2023-06-05 09:48 am-------30.07- 60.8 61.0----
2023-06-05 09:42 am-------30.07- 61.7 61.0----
2023-06-05 09:36 am-------30.07- 60.6 61.0----
2023-06-05 09:30 am-------30.07- 59.5 60.8----
2023-06-05 09:24 am-------30.07- 59.7 60.8----
2023-06-05 09:18 am-------30.07- 59.9 60.8----
2023-06-05 09:12 am-------30.07- 60.1 60.8----
2023-06-05 09:06 am-------30.06- 59.9 60.8----
2023-06-05 09:00 am-------30.06+0.02 58.8 60.8----
2023-06-05 08:54 am-------30.06- 58.5 60.8----
2023-06-05 08:48 am-------30.07- 58.6 60.8----
2023-06-05 08:42 am-------30.06- 59.4 60.8----
2023-06-05 08:36 am-------30.06- 59.7 60.8----
2023-06-05 08:30 am-------30.06- 60.3 60.8----
2023-06-05 08:24 am-------30.06- 60.1 60.8----
2023-06-05 08:18 am-------30.06- 59.7 60.8----
2023-06-05 08:12 am-------30.06- 59.5 60.8----
2023-06-05 08:06 am-------30.06- 58.6 60.8----
2023-06-05 08:00 am-------30.06+0.01 57.7 60.8----
2023-06-05 07:54 am-------30.06- 57.2 60.8----
2023-06-05 07:48 am-------30.06- 57.6 60.8----
2023-06-05 07:42 am-------30.06- 56.7 60.8----
2023-06-05 07:36 am-------30.06- 56.3 60.8----
2023-06-05 07:30 am-------30.06- 55.8 60.8----
2023-06-05 07:24 am-------30.06- 54.9 60.8----
2023-06-05 07:18 am-------30.06- 54.7 60.8----
2023-06-05 07:12 am-------30.05- 53.8 60.8----
2023-06-05 07:06 am-------30.05- 53.1 60.8----
2023-06-05 07:00 am-------30.05+0.00 52.7 60.8----
2023-06-05 06:54 am-------30.04- 52.9 60.8----
2023-06-05 06:48 am-------30.04- 52.9 60.8----
2023-06-05 06:42 am-------30.04- 53.1 60.8----
2023-06-05 06:36 am-------30.04- 53.1 60.8----
2023-06-05 06:30 am-------30.04- 52.5 61.0----
2023-06-05 06:24 am-------30.04- 52.2 61.0----
2023-06-05 06:18 am-------30.04- 52.0 61.0----
2023-06-05 06:12 am-------30.04- 51.8 61.0----
2023-06-05 06:06 am-------30.05- 51.8 61.0----
2023-06-05 06:00 am-------30.04-0.02 52.0 61.0----
2023-06-05 05:54 am-------30.04- 52.2 61.0----